Покателло

США     42°52′23″N   112°27′00″W
темп.,
°C
ветер,
м/с
пор.,
м/с
влажн.,
%
обл.,
%
осадки,
мм/ч
давл.,
гПа
погр.,
м
20 января, ср
ср2023:00−9ююв34650 0.0 103637
02:00−10ююв34650 0.0 103641
05:00−10ююв45650 0.0 103467
08:00−10ююв456697 0.0 103479
11:00−5ююв476871 0.0 1031236
14:00−2ю577018 0.0 1026385
17:00−5ю578032 0.0 1026148
20:00−7ююв467770 0.0 1027107
21 января, чт
чт2123:00−7ююв577585 0.0 1027118
02:00−7ююв4575100 0.0 102688
05:00−6ююв4476100 0.0 102485
08:00−6ююв3378100 0.0 102348
11:00−2ююв3575100 0.0 1021217
14:000ю3576100 0.0 1017316
17:00−2ю2383100 0.0 101771
20:00−3ююв3482100 0.0 101856
22 января, пт
пт2223:00−5ююв347890 0.0 101937
02:00−6ююв237715 0.0 101924
05:00−7юв228126 0.0 101922
08:00−7юв2383100 0.0 101835
11:00−3юв2384100 0.0 1015180
14:00−1в1287100 0.1 1010251
17:00−2ссв1192100 0.3 100944
20:00−5ссз1197100 0.0 100931
23 января, сб
сб2323:00−6зсз1197100 0.0 101039
02:00−6ссв2397100 0.0 1009144
05:00−6сз3495100 0.3 1010225
08:00−8сз2296100 0.3 101268
11:00−5сз2388100 0.4 1012379
14:00−4зсз3488100 0.2 1012451
17:00−5зюз2494100 0.8 1015248
20:00−7юз2488100 0.3 1018269
24 января, вс
вс2423:00−9ююз237989 0.4 102079
02:00−11ююв338115 0.0 102171
05:00−11ююв347919 0.0 102248
08:00−12ююв55760 0.0 102276
11:00−8ююв57780 0.0 1020225
14:00−5ююв697710 0.0 1016437
17:00−8ююв598812 0.0 1016262
20:00−11ююв689023 0.0 1018168